If you wish to contribute or participate in the discussions about articles you are invited to join SKYbrary as a registered user

 Actions

Lyon/Saint-Exupery

From SKYbrary Wiki

LFLL
Airport
ICAO: LFLL – IATA: LYS
Summary
Name Lyon/Saint-Exupery
Region Europe
Territory France FR.gif
Location Colombier-Saugnieu, Rhone-Alpes
Serving Lyon
Elevation 250.241 m <br />821 ft250.241 m <br />
Coordinates 45° 43' 32.02" N, 5° 4' 52.00" E
Runways
Designator Length Width Surface ROPS
18L/36R 2670 m8,759.843 ft <br /> 45 m147.638 ft <br /> ASP yes/yes
18R/36L 4000 m13,123.36 ft <br /> 45 m147.638 ft <br /> ASP yes/yes


METAR
Observation LFLL 080600Z 14008KT CAVOK 09/07 Q1018 NOSIG
Station Lyon / Satolas
Date/Time 08 May 2021 06:00:00
Wind direction 140°
Wind speed 08 kts
Lowest cloud amount clouds and visibility OK
Temperature 9°C
Dew point 7°C
Humidity 87%
QNH 1018 hPa
Weather condition n/a

Description

International airport serving city of Lyon in France; formerly known as Lyon Satolas.

Climatology

Humid Subtropical (Köppen climate classification Cfa).

Maps

Terrain

Loading map...

Airport Layout

Loading map...


Accidents & Serious Incidents at or in vicinity of LFLL

{{#ask:Lyon/Saint-Exupery |default=None on SKYbrary